TimeEDT,TemperatureF,Dew PointF,Humidity,Sea Level PressureIn,VisibilityMPH,Wind Direction,Wind SpeedMPH,Gust SpeedMPH,PrecipitationIn,Events,Conditions,WindDirDegrees,DateUTC
12:56 AM,60.1,57.9,93,29.93,10.0,Calm,Calm,-,N/A,,Unknown,0,2013-10-17 04:56:00
1:25 AM,60.8,57.2,88,29.93,10.0,SW,3.5,-,N/A,,Overcast,220,2013-10-17 05:25:00
1:56 AM,61.0,59.0,93,29.93,10.0,Calm,Calm,-,N/A,,Overcast,0,2013-10-17 05:56:00
2:56 AM,61.0,57.9,90,29.91,10.0,SW,3.5,-,N/A,,Overcast,230,2013-10-17 06:56:00
3:56 AM,61.0,57.9,90,29.90,10.0,SSW,4.6,-,N/A,,Overcast,210,2013-10-17 07:56:00
4:56 AM,61.0,57.9,90,29.90,10.0,SW,3.5,-,N/A,,Overcast,220,2013-10-17 08:56:00
5:56 AM,61.0,59.0,93,29.91,10.0,SW,4.6,-,N/A,,Overcast,230,2013-10-17 09:56:00
6:56 AM,61.0,60.1,97,29.90,9.0,SSW,3.5,-,N/A,,Overcast,200,2013-10-17 10:56:00
7:49 AM,62.6,60.8,94,29.90,9.0,SSW,4.6,-,N/A,,Overcast,210,2013-10-17 11:49:00
7:56 AM,62.1,60.1,93,29.91,9.0,SW,3.5,-,N/A,,Overcast,220,2013-10-17 11:56:00
8:32 AM,62.6,60.8,94,29.92,5.0,WSW,6.9,-,N/A,,Overcast,240,2013-10-17 12:32:00
8:56 AM,63.0,61.0,93,29.92,8.0,SSW,6.9,-,N/A,,Overcast,210,2013-10-17 12:56:00
9:05 AM,62.6,60.8,94,29.92,9.0,SSW,6.9,-,N/A,,Overcast,210,2013-10-17 13:05:00
9:56 AM,64.9,61.0,87,29.91,10.0,SSW,8.1,-,N/A,,Mostly Cloudy,210,2013-10-17 13:56:00
10:24 AM,66.2,60.8,83,29.90,10.0,SSW,6.9,-,N/A,,Overcast,210,2013-10-17 14:24:00
10:56 AM,66.0,59.0,78,29.91,10.0,WSW,9.2,-,N/A,,Overcast,240,2013-10-17 14:56:00
11:12 AM,66.2,60.8,83,29.90,10.0,Variable,5.8,-,N/A,,Overcast,0,2013-10-17 15:12:00
11:56 AM,66.9,60.1,79,29.90,10.0,SW,6.9,-,N/A,,Overcast,230,2013-10-17 15:56:00
12:56 PM,71.1,60.1,68,29.86,10.0,SSW,6.9,-,N/A,,Mostly Cloudy,210,2013-10-17 16:56:00
1:27 PM,71.6,60.8,69,29.85,10.0,South,9.2,-,N/A,,Partly Cloudy,170,2013-10-17 17:27:00
1:56 PM,69.1,61.0,75,29.85,10.0,South,12.7,-,N/A,,Clear,180,2013-10-17 17:56:00
2:56 PM,68.0,60.1,76,29.83,10.0,SSW,10.4,-,N/A,,Clear,200,2013-10-17 18:56:00
3:56 PM,66.9,60.1,79,29.83,10.0,South,11.5,-,N/A,,Clear,190,2013-10-17 19:56:00
4:56 PM,64.9,60.1,84,29.82,10.0,SSW,6.9,-,N/A,,Clear,210,2013-10-17 20:56:00
5:49 PM,62.6,59.0,88,29.81,8.0,SSW,9.2,-,N/A,,Partly Cloudy,200,2013-10-17 21:49:00
5:56 PM,63.0,60.1,90,29.81,7.0,SSW,9.2,-,N/A,,Scattered Clouds,210,2013-10-17 21:56:00
6:04 PM,62.6,60.8,94,29.81,7.0,South,11.5,-,N/A,,Mostly Cloudy,190,2013-10-17 22:04:00
6:42 PM,62.6,60.8,94,29.80,8.0,South,6.9,-,N/A,,Overcast,190,2013-10-17 22:42:00
6:56 PM,63.0,60.1,90,29.80,8.0,South,8.1,-,N/A,,Overcast,190,2013-10-17 22:56:00
7:56 PM,63.0,61.0,93,29.81,7.0,SSW,9.2,-,N/A,,Overcast,200,2013-10-17 23:56:00
8:56 PM,63.0,60.1,90,29.79,8.0,SSW,9.2,-,N/A,,Overcast,200,2013-10-18 00:56:00
9:56 PM,63.0,61.0,93,29.79,8.0,SSW,5.8,17.3,0.00,,Overcast,200,2013-10-18 01:56:00
10:56 PM,63.0,61.0,93,29.77,10.0,South,8.1,-,0.00,,Overcast,180,2013-10-18 02:56:00
11:06 PM,62.6,60.8,94,29.76,10.0,South,8.1,-,N/A,,Mostly Cloudy,180,2013-10-18 03:06:00
11:56 PM,64.0,61.0,90,29.74,10.0,South,9.2,-,N/A,,Overcast,180,2013-10-18 03:56:00